COSMOS 1275 DEB, 12701

Orbit data source: Space-Track

COSMOS 1275 DEB, 12701 is space debris in LEO originally from a launch on Thu, 04 Jun 1981 UTC launched from the Plesetsk Missile And Space Complex (PKMTR). Debris objects in space refer to the collection of defunct objects orbiting the Earth. Examples of debris include non-operational satellites, rocket bodies, and fragments generated from explosions, collisions, or faulty payload assembly.

Loading next visibility...
Identifier
12701, 1981-053AV
Orbit
LEO
Country
Flag of CISCIS
Related business
Manufacturer
Unknown
Mission
Spacecraft
Bus & Motor
Unknown
Mass
Unknown
Launch date (UTC)
1981-06-04 (44 years ago)
Launch vehicle
Unknown
Launch site
Plesetsk Missile And Space Complex (PKMTR)
Object type
Payload
Rocket body
Debris
Shape & HBR
Unknown shape, 0.2 m
Radar Cross Section
Small (<0.1 m²)

Expand to show TLE details & history
Last TLE update: 15 hours ago

TLE from 15 hours ago
0 COSMOS 1275 DEB
1 12701U 81053AV  25286.94456701  .00001112  00000-0  84798-3 0  9991
2 12701  82.8451 104.6204 0039219 356.3166 170.0170 13.92396033230057
Epoch: 2025-10-13T22:40Z
TLE epoch observation values (Epoch: 2025-10-13T22:40:10.589Z)
Latitude
13.4469°
Longitude
-79.87477°
Altitude
950.624 km
Speed
7.363 km/s
True Right ascension
18h 51m 38s
True Declination
13° 22' 17"
Sunlit
Object was in daylight at epoch
Visualization orbit readout
Latitude
Unknown
Longitude
Unknown
Altitude
Unknown
Speed
Unknown
Apparent Right ascension
Unknown
Apparent Declination
Unknown
Sunlit
N/A
Visualization observer readout
Local Sidereal Time
07:53:43
Azimuth
Unknown
Elevation
Unknown
Doppler factor
Unknown
Orbital elements
Apogee altitude
945.987 km
Perigee altitude
888.762 km
Semi-major axis
7,295.512 km
Eccentricity
0.00392
Inclination
82.8451°
RAAN
104.6204°
Arg. of periapsis
356.3166°
True anomaly
170.09453°
Mean anomaly
170.017°
Eccentric anomaly
170.0558°
Mean motion
3.48305 °/min
Orbital period
103.36 mins
BSTAR
0.00084798
Loading maneuver chart data...
Computing Atmospheric mass density...

Documentation

Showing up to 5 results
|